2017-008BF

Last updated on Wed Mar 01 2017 00:15:03 GMT+0000 (Coordinated Universal Time)

1 42001U 17008BF 17059.81498817 .00001767 00000-0 80726-4 0 9999 2 42001 97.5102 121.4285 0007582 221.9360 138.1263 15.21895963 1892
UTC large
Height (km)
Speed (km/s)
/
Latitude / Longitude
Inclination (degrees)
Orbital Period (minutes)
Azimuth
Elevation
Range (km)
Doppler Factor

Next 0 passes for location: London (51.5072 / 0.1276)

Sorry there are no passes over London.
2017-008BF